This is the latest recevied weather packets stored in our database for station/object K7FRY. If no packets are shown the sender has not sent any weather packets the latest 10 day(s).
| Time | Temp. | Humidity | Pressure | Rain* | Wind** | Luminosity | Snow |
|---|---|---|---|---|---|---|---|
| 1777356359 | 18.33° C | 31% | 1016.4 hPa | 0 mm | - | 0 W/m² | - |
| 1777356055 | 18.33° C | 30% | 1016.2 hPa | 0 mm | - | 0 W/m² | - |
| 1777355752 | 18.89° C | 30% | 1016 hPa | 0 mm | - | 0 W/m² | - |
| 1777355449 | 18.33° C | 30% | 1016 hPa | 0 mm | - | 0 W/m² | - |
| 1777355145 | 18.33° C | 30% | 1016.1 hPa | 0 mm | - | 0 W/m² | - |
| 1777354842 | 18.33° C | 29% | 1016.3 hPa | 0 mm | - | 0 W/m² | - |
| 1777354538 | 17.78° C | 29% | 1015.8 hPa | 0 mm | - | 0 W/m² | - |
| 1777354234 | 17.78° C | 29% | 1015.9 hPa | 0 mm | - | 0 W/m² | - |
| 1777353931 | 17.78° C | 28% | 1016.1 hPa | 0 mm | - | 0 W/m² | - |
| 1777353627 | 17.78° C | 28% | 1015.8 hPa | 0 mm | - | 0 W/m² | - |
| 1777353326 | 17.78° C | 28% | 1015.8 hPa | 0 mm | - | 0 W/m² | - |
| 1777353023 | 18.89° C | 27% | 1016.2 hPa | 0 mm | - | 0 W/m² | - |
| 1777352722 | 18.89° C | 26% | 1015.9 hPa | 0 mm | - | 0 W/m² | - |
| 1777352420 | 18.89° C | 26% | 1015.8 hPa | 0 mm | - | 0 W/m² | - |
| 1777352116 | 18.89° C | 25% | 1015.9 hPa | 0 mm | - | 0 W/m² | - |
| 1777351814 | 18.89° C | 25% | 1015.5 hPa | 0 mm | - | 0 W/m² | - |
| 1777351511 | 19.44° C | 25% | 1015.9 hPa | 0 mm | - | 0 W/m² | - |
| 1777351210 | 19.44° C | 25% | 1016 hPa | 0 mm | - | 0 W/m² | - |
| 1777350908 | 20° C | 24% | 1015.5 hPa | 0 mm | - | 0 W/m² | - |
| 1777350604 | 19.44° C | 24% | 1015.5 hPa | 0 mm | - | 0 W/m² | - |
| 1777350301 | 19.44° C | 24% | 1015.4 hPa | 0 mm | - | 0 W/m² | - |
| 1777349997 | 18.89° C | 24% | 1015.5 hPa | 0 mm | - | 0 W/m² | - |
| 1777349695 | 18.89° C | 24% | 1015.4 hPa | 0 mm | - | 0 W/m² | - |
| 1777349392 | 18.33° C | 24% | 1015.3 hPa | 0 mm | - | 0 W/m² | - |
| 1777349091 | 18.89° C | 24% | 1015.1 hPa | 0 mm | - | 0 W/m² | - |
* Rain latest hour (hover to see other rain measurements)
** Current wind speed in m/s (hover to see current wind gust speed)